Regional Weather Roundup
Issued by NWS

Home | Current Version | Previous Version | Text Only | Print | Product List | Glossary On
Versions: 1 2 3 4 5 6 7 8 9 10 11 12 13 14 15 16 17 18 19 20 21 22 23 24 25 26 27 28 29 30 31 32 33 34 35 36 37 38 39 40 41 42 43 44 45 46 47 48 49 50
000
ASUS43 KLOT 300303
RWRIL

ILLINOIS REGIONAL WEATHER ROUNDUP
NATIONAL WEATHER SERVICE CHICAGO/ROMEOVILLE IL
1000 PM CDT SUN MAY 29 2016

NOTE: "FAIR" INDICATES FEW OR NO CLOUDS BELOW 12,000 FEET WITH NO
SIGNIFICANT WEATHER AND/OR OBSTRUCTIONS TO VISIBILITY.

* THESE STATIONS ARE NOT UNDER NWS QUALITY CONTROL. THEY ALSO MAY NOT
  REPORT WEATHER SUCH AS PRECIPITATION OR FOG.

ILZ001-002-007-009-015-016-024-300400-
NORTHWEST ILLINOIS

CITY           SKY/WX    TMP DP  RH WIND       PRES   REMARKS
MOLINE         CLEAR     71  57  61 SW3       30.01R
STERLING*      MOCLDY    69  61  75 CALM      30.02R
$$

ILZ003-004-008-010-011-017-018-300400-
NORTH CENTRAL ILLINOIS

CITY           SKY/WX    TMP DP  RH WIND       PRES   REMARKS
ROCKFORD       PTCLDY    70  58  65 SW5       30.02R
FREEPORT*      CLEAR     66  57  71 SW7       30.02R
ROCHELLE*      CLOUDY    67  62  83 SW6       30.02R
DE KALB*       CLEAR     69  58  69 W7        30.02R
$$

ILZ005-006-012>014-019>023-300400-
NORTHEAST ILLINOIS

CITY           SKY/WX    TMP DP  RH WIND       PRES   REMARKS
CHICAGO-OHARE  PTCLDY    70  58  65 W6        29.99R
CHICAGO-MIDWAY CLEAR     74  56  53 W6        29.99R
AURORA         CLEAR     69  59  70 SW3       30.01R
LANSING*       CLEAR     68  56  64 CALM      30.00R
WAUKEGAN       MOCLDY    68  58  70 VRB3      29.98R
DUPAGE AIRPORT CLEAR     69  57  65 W5        30.00R
WHEELING       CLEAR     73  56  54 SW3       30.00R
MORRIS*        CLEAR     70  56  61 CALM      30.00R
NORTHERLY ISL    N/A     76  54  46 W6          N/A
NORTHERLY ISL    N/A     76  54  46 W6          N/A
$$

LMZ740>746-300400-
SOUTHERN LAKE MICHIGAN

STATION/POSITION SKY/WX   TEMP    WIND        PRES    VSBY  WAVE
                          AIR SEA DIR/SP/G                  HT/PER
                          (F)     (DEG/KT/KT) (MB)    (MI)  (FT/S)
SOUTHERN BUOY              57 51  220/  8/ 10 1014.0          1
WILMETTE HARBOR            66 53  270/  6/  6   N/A           1
HARRISON CRIB              78     260/  9/ 10   N/A
BURNHAM HARBOR             75     240/  5/  8   N/A
CALUMET HARBOR                                1014.8S
BURNS HARBOR               67     250/  9/ 18 1015.9R
MICHIGAN CITY              69     220/ 10/ 11   N/A
MICHIGAN CITY 6N           62 59  220/  4/  6   N/A           1
ST. JOSEPH                 63 62  210/  6/  6   N/A           1/ 3
$$

ILZ025>027-034>036-040-047-049-050-058-095>099-300400-
WEST-CENTRAL ILLINOIS

CITY           SKY/WX    TMP DP  RH WIND       PRES   REMARKS
QUINCY         TSTM      73  63  70 CALM      30.05R
MACOMB*        CLEAR     70  60  71 CALM      30.06R
PITTSFIELD*    CLOUDY    72  64  76 CALM      30.07R
$$

ILZ028>032-037-038-041>044-048-051>054-059>061-300400-
CENTRAL ILLINOIS

CITY           SKY/WX    TMP DP  RH WIND       PRES   REMARKS
BLOOMINGTON    CLEAR     70  64  81 W7        30.05R
DECATUR        CLEAR     73  56  54 NW6       30.04R
PEORIA         CLEAR     71  58  63 CALM      30.03R
LINCOLN*       CLOUDY    74  59  59 W3        30.04R
SPRINGFIELD    CLOUDY    70  60  70 CALM      30.05R
TAYLORVILLE    NOT AVBL
$$

ILZ033-039-045-046-055>057-062-063-300400-
EAST-CENTRAL ILLINOIS

CITY           SKY/WX    TMP DP  RH WIND       PRES   REMARKS
CHAMPAIGN      CLEAR     71  57  61 NW5       30.04R
MATTOON        CLEAR     69  54  58 CALM      30.04R
$$

ILZ079-100>102-300400-
SOUTHWEST ILLINOIS

CITY           SKY/WX    TMP DP  RH WIND       PRES   REMARKS
BELLEVILLE     PTCLDY    73  63  72 W2        30.05R
CAHOKIA*       CLOUDY    71  62  73 S3        30.05R
SPARTA*        PTCLDY    74  63  68 CALM      30.07R
$$

ILZ064>066-069>071-074>076-080>082-084>086-088>090-092>094-300400-
SOUTH-CENTRAL ILLINOIS

CITY           SKY/WX    TMP DP  RH WIND       PRES   REMARKS
CARBONDALE     CLEAR     68  64  87 SW5       30.06R
CAIRO*         PTCLDY    71  68  90 CALM      30.05S
EFFINGHAM*     PTCLDY    70  64  81 CALM      30.07R
MT. VERNON     PTCLDY    66  61  82 CALM      30.07R
SALEM*         CLOUDY    73  66  78 CALM      30.06R
$$

ILZ067-068-072-073-078-083-087-091-300400-
SOUTHEAST ILLINOIS

CITY           SKY/WX    TMP DP  RH WIND       PRES   REMARKS
LAWRENCEVILLE  PTCLDY    72  61  68 CALM      30.04R
FLORA*         PTCLDY    73  65  76 W5        30.05R
HARRISBURG*    CLOUDY    71  64  77 CALM      30.05R
ROBINSON*      PTCLDY    69  62  77 W7        30.04R
CARMI*         CLOUDY    70  65  82 NW5       30.04R
$$

ABBREVIATIONS USED IN REMARKS
   TC - TEMPERATURE IN CELSIUS
  WCI - WIND CHILL INDEX
   HX - HEAT INDEX
  VSB - VISIBILITY
$$





USA.gov is the U.S. government's official web portal to all federal, state and local government web resources and services.